DAL1483 KLAX-KSLC

Flight info

Callsign DAL1483
Flight time N/A
Altitude 37000
Route ORCKA5 LAS Q70 BLIPP Q842 WINEN MLF QWENN6
Aircraft A320/M-SDE3FGHIRWY/LB1

Departure

Time 2026-04-23 14:36
Airport Los Angeles International Airport (KLAX)

Arrival

Time N/A
Airport Salt Lake City International Airport (KSLC)
Time Latitude Longitude Altitude Speed Heading
2026-04-23 14:08 33.94640 -118.40650 86 ft 0 kts 263°
2026-04-23 14:27 33.94640 -118.40646 95 ft 3 kts 263°
2026-04-23 14:27 33.94644 -118.40614 95 ft 4 kts 263°
2026-04-23 14:27 33.94647 -118.40582 96 ft 4 kts 272°
2026-04-23 14:28 33.94640 -118.40554 95 ft 4 kts 321°
2026-04-23 14:28 33.94622 -118.40544 94 ft 1 kts 353°
2026-04-23 14:28 33.94619 -118.40544 94 ft 0 kts 353°
2026-04-23 14:30 33.94635 -118.40546 95 ft 8 kts 353°
2026-04-23 14:31 33.94696 -118.40555 97 ft 9 kts 353°
2026-04-23 14:31 33.94758 -118.40570 98 ft 10 kts 339°
2026-04-23 14:31 33.94814 -118.40597 99 ft 8 kts 343°
2026-04-23 14:31 33.94863 -118.40576 100 ft 7 kts 64°
2026-04-23 14:32 33.94874 -118.40498 100 ft 14 kts 83°
2026-04-23 14:32 33.94886 -118.40373 100 ft 16 kts 83°
2026-04-23 14:32 33.94900 -118.40237 100 ft 17 kts 82°
2026-04-23 14:32 33.94929 -118.40172 102 ft 0 kts 13°
2026-04-23 14:33 33.94968 -118.40172 106 ft 9 kts 355°
2026-04-23 14:34 33.95011 -118.40182 108 ft 3 kts 324°
2026-04-23 14:34 33.95007 -118.40222 109 ft 6 kts 270°
2026-04-23 14:34 33.95009 -118.40269 109 ft 5 kts 273°
2026-04-23 14:34 33.95008 -118.40284 109 ft 0 kts 263°
2026-04-23 14:35 33.94997 -118.40387 109 ft 41 kts 263°
2026-04-23 14:35 33.94933 -118.41026 108 ft 110 kts 263°
2026-04-23 14:35 33.94815 -118.42166 109 ft 162 kts 263°
2026-04-23 14:35 33.94658 -118.43523 655 ft 161 kts 261°
2026-04-23 14:36 33.94488 -118.44864 1278 ft 162 kts 261°
2026-04-23 14:36 33.94315 -118.46211 1870 ft 166 kts 261°
2026-04-23 14:36 33.94127 -118.47658 2134 ft 188 kts 262°
2026-04-23 14:36 33.93899 -118.49305 2395 ft 211 kts 262°
2026-04-23 14:37 33.93635 -118.51154 2679 ft 236 kts 261°
2026-04-23 14:37 33.93342 -118.53140 3315 ft 246 kts 261°
2026-04-23 14:37 33.93031 -118.55185 4103 ft 250 kts 261°
2026-04-23 14:37 33.92710 -118.57258 4902 ft 254 kts 261°
2026-04-23 14:38 33.92379 -118.59365 5681 ft 257 kts 261°
2026-04-23 14:38 33.92045 -118.61492 6478 ft 260 kts 261°
2026-04-23 14:38 33.91704 -118.63646 7254 ft 262 kts 261°
2026-04-23 14:38 33.91359 -118.65798 8053 ft 263 kts 261°
2026-04-23 14:39 33.91005 -118.67978 8813 ft 266 kts 261°
2026-04-23 14:39 33.90644 -118.70159 9631 ft 266 kts 261°
2026-04-23 14:39 33.90280 -118.72309 10585 ft 258 kts 261°
2026-04-23 14:39 33.89920 -118.74410 11408 ft 255 kts 261°
2026-04-23 14:40 33.89566 -118.76496 12164 ft 254 kts 261°
2026-04-23 14:40 33.89218 -118.78579 12916 ft 254 kts 261°
2026-04-23 14:40 33.88873 -118.80664 13640 ft 254 kts 261°
2026-04-23 14:40 33.88390 -118.82710 14292 ft 259 kts 245°
2026-04-23 14:41 33.87187 -118.84363 14872 ft 272 kts 219°
2026-04-23 14:41 33.85388 -118.85301 15161 ft 301 kts 195°
2026-04-23 14:41 33.83190 -118.85116 15288 ft 338 kts 166°
2026-04-23 14:41 33.81098 -118.83584 15417 ft 371 kts 138°
2026-04-23 14:42 33.79640 -118.80924 15586 ft 395 kts 111°
2026-04-23 14:42 33.79218 -118.77640 15990 ft 404 kts 84°
2026-04-23 14:42 33.79932 -118.74397 16474 ft 402 kts 59°
2026-04-23 14:42 33.81627 -118.71781 16981 ft 396 kts 36°
2026-04-23 14:43 33.83773 -118.69704 17507 ft 398 kts 33°
2026-04-23 14:43 33.85932 -118.67667 18042 ft 402 kts 33°
2026-04-23 14:43 33.88142 -118.65586 18547 ft 406 kts 33°
2026-04-23 14:43 33.90270 -118.63306 19011 ft 414 kts 41°
2026-04-23 14:44 33.92207 -118.60730 19487 ft 420 kts 46°
2026-04-23 14:44 33.94064 -118.57920 19975 ft 424 kts 49°
2026-04-23 14:44 33.95808 -118.55096 20453 ft 428 kts 50°
2026-04-23 14:44 33.97577 -118.52185 20933 ft 431 kts 50°
2026-04-23 14:45 33.99377 -118.49270 21402 ft 434 kts 49°
2026-04-23 14:45 34.01216 -118.46374 21875 ft 437 kts 48°
2026-04-23 14:45 34.03094 -118.43480 22350 ft 440 kts 48°
2026-04-23 14:45 34.05006 -118.40572 22812 ft 443 kts 47°
2026-04-23 14:46 34.06930 -118.37657 23261 ft 446 kts 47°
2026-04-23 14:46 34.08874 -118.34713 23692 ft 450 kts 48°
2026-04-23 14:46 34.10828 -118.31747 24052 ft 453 kts 48°
2026-04-23 14:46 34.12791 -118.28758 24399 ft 456 kts 48°
2026-04-23 14:47 34.14764 -118.25732 24739 ft 459 kts 48°
2026-04-23 14:47 34.16745 -118.22684 25078 ft 462 kts 48°
2026-04-23 14:47 34.18735 -118.19615 25406 ft 465 kts 48°
2026-04-23 14:47 34.20058 -118.17574 25627 ft 467 kts 48°
2026-04-23 14:48 34.22067 -118.14475 25946 ft 470 kts 48°
2026-04-23 14:48 34.24753 -118.10339 26383 ft 473 kts 48°
2026-04-23 14:48 34.26792 -118.07204 26693 ft 476 kts 48°
2026-04-23 14:48 34.28846 -118.04044 27005 ft 479 kts 48°
2026-04-23 14:49 34.30237 -118.01903 27223 ft 480 kts 48°
2026-04-23 14:49 34.32303 -117.98711 27529 ft 483 kts 48°
2026-04-23 14:49 34.34376 -117.95501 27847 ft 485 kts 49°
2026-04-23 14:49 34.36454 -117.92271 28158 ft 487 kts 49°
2026-04-23 14:50 34.38540 -117.89030 28472 ft 490 kts 49°
2026-04-23 14:50 34.40642 -117.85771 28770 ft 491 kts 49°
2026-04-23 14:50 34.42751 -117.82500 29054 ft 493 kts 49°
2026-04-23 14:50 34.44835 -117.79264 29331 ft 495 kts 49°
2026-04-23 14:51 34.46958 -117.75958 29608 ft 497 kts 49°
2026-04-23 14:51 34.49082 -117.72647 29881 ft 499 kts 49°
2026-04-23 14:51 34.51216 -117.69319 30157 ft 501 kts 49°
2026-04-23 14:51 34.53357 -117.65983 30390 ft 502 kts 49°
2026-04-23 14:52 34.55505 -117.62635 30601 ft 504 kts 49°
2026-04-23 14:52 34.57659 -117.59270 30822 ft 506 kts 49°
2026-04-23 14:52 34.59820 -117.55887 31057 ft 506 kts 49°
2026-04-23 14:52 34.61975 -117.52509 31348 ft 506 kts 49°
2026-04-23 14:53 34.64128 -117.49133 31617 ft 506 kts 49°
2026-04-23 14:53 34.66282 -117.45754 31878 ft 506 kts 49°
2026-04-23 14:53 34.68439 -117.42368 32137 ft 506 kts 49°
2026-04-23 14:53 34.70588 -117.38986 32390 ft 506 kts 49°
2026-04-23 14:54 34.72740 -117.35596 32651 ft 506 kts 49°
2026-04-23 14:54 34.74890 -117.32209 32915 ft 506 kts 49°
2026-04-23 14:54 34.77035 -117.28828 33185 ft 505 kts 49°
2026-04-23 14:54 34.79179 -117.25443 33447 ft 505 kts 49°
2026-04-23 14:55 34.81321 -117.22057 33715 ft 504 kts 49°
2026-04-23 14:55 34.83460 -117.18675 33979 ft 504 kts 49°
2026-04-23 14:55 34.85597 -117.15295 34221 ft 503 kts 49°
2026-04-23 14:55 34.87705 -117.11954 34455 ft 503 kts 48°
2026-04-23 14:56 34.89836 -117.08576 34677 ft 503 kts 48°
2026-04-23 14:56 34.91967 -117.05193 34878 ft 503 kts 48°
2026-04-23 14:56 34.94096 -117.01810 35073 ft 503 kts 48°
2026-04-23 14:56 34.96227 -116.98423 35273 ft 504 kts 48°
2026-04-23 14:57 34.98360 -116.95032 35442 ft 504 kts 48°
2026-04-23 14:57 35.00496 -116.91636 35608 ft 504 kts 48°
2026-04-23 14:57 35.02631 -116.88235 35777 ft 505 kts 48°
2026-04-23 14:57 35.04766 -116.84827 35917 ft 506 kts 48°
2026-04-23 14:58 35.06900 -116.81415 36055 ft 506 kts 48°
2026-04-23 14:58 35.09039 -116.77993 36172 ft 507 kts 48°
2026-04-23 14:58 35.11181 -116.74563 36318 ft 507 kts 48°
2026-04-23 14:58 35.13324 -116.71128 36463 ft 508 kts 48°
2026-04-23 14:59 35.15464 -116.67695 36618 ft 508 kts 48°
2026-04-23 14:59 35.17609 -116.64253 36761 ft 509 kts 48°
2026-04-23 14:59 35.19722 -116.60861 36899 ft 509 kts 47°
2026-04-23 14:59 35.21865 -116.57421 37061 ft 509 kts 47°
2026-04-23 15:00 35.26155 -116.50513 37088 ft 509 kts 47°
2026-04-23 15:00 35.30432 -116.43610 37078 ft 509 kts 47°
2026-04-23 15:01 35.34709 -116.36688 37068 ft 510 kts 48°
2026-04-23 15:01 35.38982 -116.29761 37058 ft 510 kts 47°
2026-04-23 15:02 35.43265 -116.22805 37048 ft 509 kts 47°
2026-04-23 15:02 35.47508 -116.15900 37060 ft 510 kts 47°
2026-04-23 15:03 35.51772 -116.08945 37071 ft 510 kts 48°
2026-04-23 15:03 35.56026 -116.01972 37077 ft 510 kts 48°
2026-04-23 15:04 35.60278 -115.95002 37086 ft 510 kts 48°
2026-04-23 15:04 35.64540 -115.88025 37092 ft 509 kts 47°
2026-04-23 15:05 35.68793 -115.81061 37091 ft 509 kts 47°
2026-04-23 15:05 35.73010 -115.74123 37089 ft 509 kts 48°
2026-04-23 15:06 35.77254 -115.67114 37075 ft 513 kts 48°
2026-04-23 15:06 35.81553 -115.60012 37080 ft 519 kts 48°
2026-04-23 15:07 35.85888 -115.52825 37085 ft 525 kts 48°
2026-04-23 15:07 35.90250 -115.45583 37098 ft 527 kts 48°
2026-04-23 15:08 35.94594 -115.38354 37103 ft 528 kts 48°
2026-04-23 15:09 36.01153 -115.27415 37125 ft 528 kts 48°
2026-04-23 15:09 36.05519 -115.20108 37107 ft 529 kts 48°
2026-04-23 15:10 36.09459 -115.14411 37111 ft 518 kts 36°
2026-04-23 15:10 36.15783 -115.07580 37045 ft 516 kts 34°
2026-04-23 15:11 36.21198 -115.01756 37047 ft 516 kts 34°
2026-04-23 15:11 36.26611 -114.95917 37052 ft 516 kts 34°
2026-04-23 15:12 36.31985 -114.90099 37048 ft 516 kts 34°
2026-04-23 15:12 36.37386 -114.84241 37033 ft 516 kts 33°
2026-04-23 15:13 36.42792 -114.78365 37023 ft 516 kts 33°
2026-04-23 15:13 36.48192 -114.72489 37003 ft 516 kts 33°
2026-04-23 15:14 36.53606 -114.66597 37010 ft 516 kts 33°
2026-04-23 15:14 36.59010 -114.60706 37014 ft 517 kts 33°
2026-04-23 15:15 36.64410 -114.54795 37009 ft 517 kts 33°
2026-04-23 15:15 36.69805 -114.48886 37012 ft 516 kts 32°
2026-04-23 15:15 36.72609 -114.46259 37011 ft 505 kts 23°
2026-04-23 15:16 36.75583 -114.43937 37018 ft 503 kts 22°
2026-04-23 15:16 36.81526 -114.39305 37018 ft 504 kts 22°
2026-04-23 15:17 36.87469 -114.34633 37025 ft 504 kts 22°
2026-04-23 15:17 36.93409 -114.29953 37021 ft 504 kts 22°
2026-04-23 15:18 36.99356 -114.25274 37027 ft 504 kts 22°
2026-04-23 15:18 37.05294 -114.20587 37040 ft 505 kts 22°
2026-04-23 15:19 37.11195 -114.15911 37035 ft 505 kts 22°
2026-04-23 15:19 37.17136 -114.11198 37040 ft 505 kts 22°
2026-04-23 15:20 37.22076 -114.07280 37047 ft 505 kts 22°
2026-04-23 15:20 37.29020 -114.01761 37053 ft 505 kts 22°
2026-04-23 15:21 37.34955 -113.97032 37061 ft 505 kts 22°
2026-04-23 15:21 37.40888 -113.92290 37066 ft 505 kts 22°
2026-04-23 15:22 37.46787 -113.87569 37073 ft 505 kts 22°
2026-04-23 15:22 37.52722 -113.82812 37078 ft 506 kts 22°
2026-04-23 15:23 37.58652 -113.78051 37085 ft 506 kts 22°
2026-04-23 15:23 37.64589 -113.73279 37086 ft 506 kts 22°
2026-04-23 15:24 37.70527 -113.68494 37087 ft 506 kts 23°
2026-04-23 15:24 37.76453 -113.63696 37086 ft 506 kts 23°
2026-04-23 15:25 37.82371 -113.58900 37086 ft 505 kts 23°
2026-04-23 15:25 37.88257 -113.54132 37082 ft 505 kts 23°
2026-04-23 15:26 37.94095 -113.49136 37065 ft 514 kts 31°
2026-04-23 15:26 37.99464 -113.43079 37064 ft 517 kts 33°
2026-04-23 15:27 38.04815 -113.36995 37063 ft 517 kts 33°
2026-04-23 15:27 38.10168 -113.30911 37066 ft 516 kts 33°
2026-04-23 15:28 38.15516 -113.24838 37075 ft 516 kts 33°
2026-04-23 15:28 38.20854 -113.18745 37104 ft 515 kts 34°
2026-04-23 15:29 38.26186 -113.12643 37132 ft 515 kts 34°
2026-04-23 15:29 38.31470 -113.06585 37158 ft 515 kts 34°
2026-04-23 15:30 38.37052 -113.01069 37169 ft 498 kts 20°
2026-04-23 15:30 38.40118 -112.99127 37171 ft 487 kts 13°
2026-04-23 15:30 38.43246 -112.97481 37171 ft 486 kts 13°
2026-04-23 15:31 38.49498 -112.94179 37171 ft 486 kts 13°
2026-04-23 15:31 38.55742 -112.90852 37147 ft 486 kts 13°
2026-04-23 15:32 38.61979 -112.87508 37120 ft 486 kts 14°
2026-04-23 15:32 38.68216 -112.84158 37079 ft 486 kts 14°
2026-04-23 15:33 38.74399 -112.80833 37065 ft 485 kts 14°
2026-04-23 15:33 38.80648 -112.77476 36189 ft 489 kts 14°
2026-04-23 15:33 38.83775 -112.75792 35651 ft 485 kts 14°
2026-04-23 15:34 38.86878 -112.74116 35101 ft 483 kts 14°
2026-04-23 15:34 38.89762 -112.72553 34575 ft 483 kts 14°
2026-04-23 15:34 38.92856 -112.70873 34010 ft 482 kts 15°
2026-04-23 15:34 38.95939 -112.69200 33394 ft 480 kts 15°
2026-04-23 15:35 38.99013 -112.67534 32831 ft 478 kts 16°
2026-04-23 15:35 39.01861 -112.65991 32309 ft 475 kts 17°
2026-04-23 15:35 39.04896 -112.64346 31751 ft 472 kts 18°
2026-04-23 15:35 39.07904 -112.62712 31198 ft 469 kts 19°
2026-04-23 15:36 39.10900 -112.61085 30646 ft 465 kts 19°
2026-04-23 15:36 39.13873 -112.59471 30098 ft 461 kts 20°
2026-04-23 15:36 39.16538 -112.58024 29590 ft 459 kts 20°